Saint Bonnet de Bellac- Haute Vienne - France
Donnes mto: mardi, 24/07/2012
Date Horaire Temp. E. Hum. E. P.atmo. Pluie Vent Direction Direction Ensoleilleme Solaire P. de rose Temp au vent Rafales
24/07/2012 00:00 14,8 C 62 % 1017,0 hPa 0,0 mm 0,0 km/h (0 Bft) N-NE 22 0 min 0 W/m 7,6 C 14,8 C 0,0 km/h (0 Bft)
24/07/2012 00:10 14,5 C 63 % 1016,8 hPa 0,0 mm 0,0 km/h (0 Bft) N-NE 22 0 min 0 W/m 7,5 C 14,5 C 0,0 km/h (0 Bft)
24/07/2012 00:20 14,2 C 64 % 1016,9 hPa 0,0 mm 0,0 km/h (0 Bft) N-NO 337 0 min 0 W/m 7,5 C 14,2 C 0,0 km/h (0 Bft)
24/07/2012 00:30 13,9 C 67 % 1016,8 hPa 0,0 mm 0,0 km/h (0 Bft) S-SO 202 0 min 0 W/m 7,9 C 13,9 C 0,0 km/h (0 Bft)
24/07/2012 00:40 13,6 C 66 % 1016,8 hPa 0,0 mm 0,0 km/h (0 Bft) S 180 0 min 0 W/m 7,4 C 13,6 C 0,0 km/h (0 Bft)
24/07/2012 00:50 13,4 C 67 % 1016,8 hPa 0,0 mm 0,0 km/h (0 Bft) SE 135 0 min 0 W/m 7,4 C 13,4 C 0,0 km/h (0 Bft)
24/07/2012 01:00 13,4 C 67 % 1016,9 hPa 0,0 mm 0,0 km/h (0 Bft) E-SE 112 0 min 0 W/m 7,4 C 13,4 C 0,0 km/h (0 Bft)
24/07/2012 01:10 13,3 C 68 % 1016,8 hPa 0,0 mm 0,0 km/h (0 Bft) S-SE 157 0 min 0 W/m 7,5 C 13,3 C 0,0 km/h (0 Bft)
24/07/2012 01:20 13,1 C 68 % 1016,6 hPa 0,0 mm 0,0 km/h (0 Bft) NE 45 0 min 0 W/m 7,3 C 13,1 C 0,0 km/h (0 Bft)
24/07/2012 01:30 12,9 C 69 % 1016,6 hPa 0,0 mm 0,0 km/h (0 Bft) NE 45 0 min 0 W/m 7,4 C 12,9 C 0,0 km/h (0 Bft)
24/07/2012 01:40 12,6 C 71 % 1016,6 hPa 0,0 mm 0,0 km/h (0 Bft) NE 45 0 min 0 W/m 7,5 C 12,6 C 0,0 km/h (0 Bft)
24/07/2012 01:50 12,4 C 71 % 1016,4 hPa 0,0 mm 0,0 km/h (0 Bft) NE 45 0 min 0 W/m 7,3 C 12,4 C 0,0 km/h (0 Bft)
24/07/2012 02:00 12,3 C 71 % 1016,5 hPa 0,0 mm 0,0 km/h (0 Bft) NE 45 0 min 0 W/m 7,2 C 12,3 C 0,0 km/h (0 Bft)
24/07/2012 02:10 12,1 C 72 % 1016,5 hPa 0,0 mm 0,0 km/h (0 Bft) SO 225 0 min 0 W/m 7,2 C 12,1 C 0,0 km/h (0 Bft)
24/07/2012 02:20 11,8 C 73 % 1016,3 hPa 0,0 mm 0,0 km/h (0 Bft) E-SE 112 0 min 0 W/m 7,1 C 11,8 C 0,0 km/h (0 Bft)
24/07/2012 02:30 11,8 C 75 % 1016,1 hPa 0,0 mm 0,0 km/h (0 Bft) E-SE 112 0 min 0 W/m 7,5 C 11,8 C 0,0 km/h (0 Bft)
24/07/2012 02:40 11,8 C 74 % 1016,1 hPa 0,0 mm 0,0 km/h (0 Bft) E-SE 112 0 min 0 W/m 7,3 C 11,8 C 0,0 km/h (0 Bft)
24/07/2012 02:50 11,7 C 74 % 1015,9 hPa 0,0 mm 0,0 km/h (0 Bft) E 90 0 min 0 W/m 7,2 C 11,7 C 0,0 km/h (0 Bft)
24/07/2012 03:02 11,6 C 75 % 1015,8 hPa 0,0 mm 0,0 km/h (0 Bft) NE 45 0 min 0 W/m 7,3 C 11,6 C 0,0 km/h (0 Bft)
24/07/2012 03:10 11,4 C 76 % 1015,9 hPa 0,0 mm 0,0 km/h (0 Bft) S-SO 202 0 min 0 W/m 7,3 C 11,4 C 0,0 km/h (0 Bft)
24/07/2012 03:20 11,2 C 76 % 1015,8 hPa 0,0 mm 0,0 km/h (0 Bft) E-SE 112 0 min 0 W/m 7,1 C 11,2 C 0,0 km/h (0 Bft)
24/07/2012 03:30 11,2 C 76 % 1015,6 hPa 0,0 mm 0,0 km/h (0 Bft) NE 45 0 min 0 W/m 7,1 C 11,2 C 0,0 km/h (0 Bft)
24/07/2012 03:40 11,1 C 77 % 1015,6 hPa 0,0 mm 0,0 km/h (0 Bft) S-SO 202 0 min 0 W/m 7,2 C 11,1 C 0,0 km/h (0 Bft)
24/07/2012 03:50 10,8 C 77 % 1015,5 hPa 0,0 mm 0,0 km/h (0 Bft) E-NE 67 0 min 0 W/m 6,9 C 10,8 C 0,0 km/h (0 Bft)
24/07/2012 04:00 10,5 C 78 % 1015,5 hPa 0,0 mm 0,0 km/h (0 Bft) E-NE 67 0 min 0 W/m 6,8 C 10,5 C 0,0 km/h (0 Bft)
24/07/2012 04:10 10,3 C 78 % 1015,5 hPa 0,0 mm 0,0 km/h (0 Bft) E-NE 67 0 min 0 W/m 6,6 C 10,3 C 0,0 km/h (0 Bft)
24/07/2012 04:20 10,2 C 79 % 1015,3 hPa 0,0 mm 0,0 km/h (0 Bft) E-SE 112 0 min 0 W/m 6,7 C 10,2 C 0,0 km/h (0 Bft)
24/07/2012 04:30 10,1 C 79 % 1015,3 hPa 0,0 mm 0,0 km/h (0 Bft) E 90 0 min 0 W/m 6,6 C 10,1 C 0,0 km/h (0 Bft)
24/07/2012 04:40 9,9 C 79 % 1015,2 hPa 0,0 mm 0,0 km/h (0 Bft) NE 45 0 min 0 W/m 6,4 C 9,9 C 0,0 km/h (0 Bft)
24/07/2012 04:50 9,8 C 79 % 1015,2 hPa 0,0 mm 0,0 km/h (0 Bft) NE 45 0 min 0 W/m 6,3 C 9,8 C 0,0 km/h (0 Bft)
24/07/2012 05:00 9,6 C 80 % 1015,3 hPa 0,0 mm 0,0 km/h (0 Bft) NE 45 0 min 0 W/m 6,3 C 9,6 C 0,0 km/h (0 Bft)
24/07/2012 05:10 9,4 C 80 % 1015,3 hPa 0,0 mm 0,0 km/h (0 Bft) NE 45 0 min 0 W/m 6,1 C 9,4 C 0,0 km/h (0 Bft)
24/07/2012 05:20 9,3 C 80 % 1015,2 hPa 0,0 mm 0,0 km/h (0 Bft) NE 45 0 min 0 W/m 6,0 C 9,3 C 0,0 km/h (0 Bft)
24/07/2012 05:30 9,2 C 80 % 1015,3 hPa 0,0 mm 0,0 km/h (0 Bft) NE 45 0 min 0 W/m 5,9 C 9,2 C 0,0 km/h (0 Bft)
24/07/2012 05:40 9,1 C 81 % 1015,2 hPa 0,0 mm 0,0 km/h (0 Bft) NE 45 0 min 0 W/m 6,0 C 9,1 C 0,0 km/h (0 Bft)
24/07/2012 05:50 8,9 C 81 % 1015,0 hPa 0,0 mm 0,0 km/h (0 Bft) NE 45 0 min 0 W/m 5,8 C 8,9 C 0,0 km/h (0 Bft)
24/07/2012 06:00 8,9 C 83 % 1015,1 hPa 0,0 mm 0,0 km/h (0 Bft) S-SE 157 0 min 0 W/m 6,2 C 8,9 C 0,0 km/h (0 Bft)
24/07/2012 06:10 8,9 C 83 % 1015,1 hPa 0,0 mm 0,0 km/h (0 Bft) S-SE 157 0 min 0 W/m 6,2 C 8,9 C 0,0 km/h (0 Bft)
24/07/2012 06:20 8,8 C 83 % 1015,1 hPa 0,0 mm 0,0 km/h (0 Bft) S-SE 157 0 min 0 W/m 6,1 C 8,8 C 0,0 km/h (0 Bft)
24/07/2012 06:30 8,6 C 84 % 1015,0 hPa 0,0 mm 0,0 km/h (0 Bft) E-SE 112 0 min 0 W/m 6,1 C 8,6 C 0,0 km/h (0 Bft)
24/07/2012 06:40 8,9 C 84 % 1015,1 hPa 0,0 mm 0,0 km/h (0 Bft) E 90 0 min 0 W/m 6,3 C 8,9 C 0,0 km/h (0 Bft)
24/07/2012 06:50 9,3 C 84 % 1015,0 hPa 0,0 mm 0,0 km/h (0 Bft) SE 135 0 min 0 W/m 6,7 C 9,3 C 0,0 km/h (0 Bft)
24/07/2012 07:00 9,6 C 84 % 1015,2 hPa 0,0 mm 0,0 km/h (0 Bft) E 90 0 min 0 W/m 7,0 C 9,6 C 2,9 km/h (1 Bft)
24/07/2012 07:10 9,8 C 84 % 1015,2 hPa 0,0 mm 0,0 km/h (0 Bft) E-SE 112 0 min 0 W/m 7,2 C 9,8 C 0,0 km/h (0 Bft)
24/07/2012 07:20 10,1 C 84 % 1015,3 hPa 0,0 mm 0,0 km/h (0 Bft) SE 135 0 min 0 W/m 7,5 C 10,1 C 3,2 km/h (1 Bft)
24/07/2012 07:30 10,8 C 84 % 1015,2 hPa 0,0 mm 1,4 km/h (1 Bft) E-SE 112 0 min 0 W/m 8,2 C 10,8 C 2,9 km/h (1 Bft)
24/07/2012 07:40 11,3 C 83 % 1015,1 hPa 0,0 mm 1,8 km/h (1 Bft) SE 135 0 min 0 W/m 8,5 C 11,3 C 4,3 km/h (1 Bft)
24/07/2012 07:50 11,9 C 81 % 1015,2 hPa 0,0 mm 0,4 km/h (0 Bft) E 90 0 min 0 W/m 8,7 C 11,9 C 0,4 km/h (0 Bft)
24/07/2012 08:00 12,4 C 79 % 1015,3 hPa 0,0 mm 4,0 km/h (1 Bft) E 90 0 min 0 W/m 8,9 C 12,4 C 6,8 km/h (2 Bft)
24/07/2012 08:10 12,8 C 78 % 1015,4 hPa 0,0 mm 4,7 km/h (1 Bft) E 90 0 min 0 W/m 9,1 C 12,8 C 6,8 km/h (2 Bft)
24/07/2012 08:20 13,2 C 77 % 1015,5 hPa 0,0 mm 0,7 km/h (0 Bft) E 90 0 min 0 W/m 9,3 C 13,2 C 3,2 km/h (1 Bft)
24/07/2012 08:30 13,8 C 76 % 1015,4 hPa 0,0 mm 2,9 km/h (1 Bft) E-NE 67 0 min 0 W/m 9,6 C 13,8 C 6,5 km/h (2 Bft)
24/07/2012 08:40 14,2 C 75 % 1015,4 hPa 0,0 mm 0,4 km/h (0 Bft) E-NE 67 0 min 0 W/m 9,8 C 14,2 C 0,4 km/h (0 Bft)
24/07/2012 08:50 14,8 C 73 % 1015,6 hPa 0,0 mm 3,2 km/h (1 Bft) E-NE 67 0 min 0 W/m 10,0 C 14,8 C 4,3 km/h (1 Bft)
24/07/2012 09:00 15,5 C 73 % 1015,5 hPa 0,0 mm 0,4 km/h (0 Bft) E-SE 112 0 min 0 W/m 10,7 C 15,5 C 4,0 km/h (1 Bft)
24/07/2012 09:10 16,5 C 72 % 1015,5 hPa 0,0 mm 2,2 km/h (1 Bft) E 90 0 min 0 W/m 11,4 C 16,5 C 4,3 km/h (1 Bft)
24/07/2012 09:20 17,3 C 71 % 1015,6 hPa 0,0 mm 0,0 km/h (0 Bft) E-NE 67 0 min 0 W/m 12,0 C 17,3 C 3,2 km/h (1 Bft)
24/07/2012 09:30 18,1 C 69 % 1015,5 hPa 0,0 mm 2,2 km/h (1 Bft) E 90 0 min 0 W/m 12,3 C 18,1 C 3,6 km/h (1 Bft)
24/07/2012 09:40 18,8 C 67 % 1015,6 hPa 0,0 mm 0,7 km/h (0 Bft) E-NE 67 0 min 0 W/m 12,5 C 18,8 C 0,7 km/h (0 Bft)
24/07/2012 09:50 19,8 C 65 % 1015,5 hPa 0,0 mm 0,0 km/h (0 Bft) SE 135 0 min 0 W/m 13,0 C 19,8 C 4,0 km/h (1 Bft)
24/07/2012 10:00 20,4 C 62 % 1015,6 hPa 0,0 mm 0,7 km/h (0 Bft) E-SE 112 0 min 0 W/m 12,9 C 20,4 C 3,6 km/h (1 Bft)
24/07/2012 10:10 21,3 C 61 % 1015,6 hPa 0,0 mm 1,1 km/h (1 Bft) E-SE 112 0 min 0 W/m 13,5 C 21,3 C 4,0 km/h (1 Bft)
24/07/2012 10:20 22,3 C 60 % 1015,4 hPa 0,0 mm 1,1 km/h (1 Bft) E-SE 112 0 min 0 W/m 14,2 C 22,3 C 4,3 km/h (1 Bft)
24/07/2012 10:30 23,1 C 58 % 1015,5 hPa 0,0 mm 1,1 km/h (1 Bft) N 360 0 min 0 W/m 14,4 C 23,1 C 1,1 km/h (1 Bft)
24/07/2012 10:40 24,1 C 56 % 1015,4 hPa 0,0 mm 0,7 km/h (0 Bft) SO 225 0 min 0 W/m 14,8 C 24,1 C 0,7 km/h (0 Bft)
24/07/2012 10:50 24,9 C 54 % 1015,3 hPa 0,0 mm 0,0 km/h (0 Bft) S 180 0 min 0 W/m 14,9 C 24,9 C 0,0 km/h (0 Bft)
24/07/2012 11:00 25,8 C 53 % 1015,2 hPa 0,0 mm 0,0 km/h (0 Bft) SE 135 0 min 0 W/m 15,5 C 25,8 C 0,0 km/h (0 Bft)
24/07/2012 11:10 26,6 C 48 % 1015,3 hPa 0,0 mm 2,2 km/h (1 Bft) S-SO 202 0 min 0 W/m 14,7 C 26,6 C 4,3 km/h (1 Bft)
24/07/2012 11:20 27,3 C 47 % 1015,3 hPa 0,0 mm 0,0 km/h (0 Bft) S 180 0 min 0 W/m 15,0 C 27,3 C 2,9 km/h (1 Bft)
24/07/2012 11:30 27,8 C 44 % 1015,2 hPa 0,0 mm 1,1 km/h (1 Bft) S-SE 157 0 min 0 W/m 14,4 C 27,8 C 4,0 km/h (1 Bft)
24/07/2012 11:40 28,3 C 42 % 1015,2 hPa 0,0 mm 0,4 km/h (0 Bft) S 180 0 min 0 W/m 14,1 C 28,3 C 0,4 km/h (0 Bft)
24/07/2012 11:50 28,6 C 42 % 1015,3 hPa 0,0 mm 2,2 km/h (1 Bft) S 180 0 min 0 W/m 14,4 C 28,6 C 3,6 km/h (1 Bft)
24/07/2012 12:00 28,8 C 39 % 1015,2 hPa 0,0 mm 4,0 km/h (1 Bft) S 180 0 min 0 W/m 13,4 C 28,8 C 4,0 km/h (1 Bft)
24/07/2012 12:10 28,9 C 38 % 1015,3 hPa 0,0 mm 2,5 km/h (1 Bft) SE 135 0 min 0 W/m 13,1 C 28,9 C 4,3 km/h (1 Bft)
24/07/2012 12:20 28,7 C 38 % 1015,2 hPa 0,0 mm 4,3 km/h (1 Bft) S-SE 157 0 min 0 W/m 13,0 C 28,7 C 6,8 km/h (2 Bft)
24/07/2012 12:30 28,8 C 40 % 1015,1 hPa 0,0 mm 0,4 km/h (0 Bft) SE 135 0 min 0 W/m 13,8 C 28,8 C 0,4 km/h (0 Bft)
24/07/2012 12:40 28,9 C 40 % 1015,0 hPa 0,0 mm 2,9 km/h (1 Bft) E-SE 112 0 min 0 W/m 13,9 C 28,9 C 2,9 km/h (1 Bft)
24/07/2012 12:50 29,0 C 38 % 1015,0 hPa 0,0 mm 2,2 km/h (1 Bft) NE 45 0 min 0 W/m 13,2 C 29,0 C 4,0 km/h (1 Bft)
24/07/2012 13:00 29,1 C 38 % 1015,0 hPa 0,0 mm 3,2 km/h (1 Bft) E 90 0 min 0 W/m 13,3 C 29,1 C 6,5 km/h (2 Bft)
24/07/2012 13:10 28,9 C 39 % 1015,0 hPa 0,0 mm 2,9 km/h (1 Bft) S 180 0 min 0 W/m 13,5 C 28,9 C 4,3 km/h (1 Bft)
24/07/2012 13:20 29,3 C 38 % 1014,9 hPa 0,0 mm 1,8 km/h (1 Bft) E-SE 112 0 min 0 W/m 13,5 C 29,3 C 3,6 km/h (1 Bft)
24/07/2012 13:30 29,4 C 38 % 1014,9 hPa 0,0 mm 2,2 km/h (1 Bft) SO 225 0 min 0 W/m 13,6 C 29,4 C 6,1 km/h (2 Bft)
24/07/2012 13:40 29,3 C 38 % 1014,8 hPa 0,0 mm 1,8 km/h (1 Bft) E-SE 112 0 min 0 W/m 13,5 C 29,3 C 2,9 km/h (1 Bft)
24/07/2012 13:50 29,5 C 37 % 1014,7 hPa 0,0 mm 0,0 km/h (0 Bft) O-SO 247 0 min 0 W/m 13,3 C 29,5 C 0,0 km/h (0 Bft)
24/07/2012 14:00 29,8 C 34 % 1014,6 hPa 0,0 mm 2,2 km/h (1 Bft) SO 225 0 min 0 W/m 12,2 C 29,8 C 2,2 km/h (1 Bft)
24/07/2012 14:10 29,8 C 34 % 1014,6 hPa 0,0 mm 2,5 km/h (1 Bft) NE 45 0 min 0 W/m 12,2 C 29,8 C 3,6 km/h (1 Bft)
24/07/2012 14:20 29,9 C 34 % 1014,6 hPa 0,0 mm 6,1 km/h (2 Bft) SE 135 0 min 0 W/m 12,3 C 29,9 C 10,1 km/h (2 Bft)
24/07/2012 14:30 29,8 C 33 % 1014,6 hPa 0,0 mm 7,6 km/h (2 Bft) SO 225 0 min 0 W/m 11,8 C 29,8 C 9,7 km/h (2 Bft)
24/07/2012 14:40 29,8 C 31 % 1014,5 hPa 0,0 mm 0,0 km/h (0 Bft) S 180 0 min 0 W/m 10,8 C 29,8 C 0,0 km/h (0 Bft)
24/07/2012 14:50 29,9 C 33 % 1014,4 hPa 0,0 mm 3,6 km/h (1 Bft) S 180 0 min 0 W/m 11,9 C 29,9 C 4,0 km/h (1 Bft)
24/07/2012 15:00 30,2 C 34 % 1014,3 hPa 0,0 mm 4,7 km/h (1 Bft) S-SE 157 0 min 0 W/m 12,6 C 30,2 C 11,5 km/h (2 Bft)
24/07/2012 15:10 30,3 C 33 % 1014,2 hPa 0,0 mm 6,1 km/h (2 Bft) E-SE 112 0 min 0 W/m 12,2 C 30,3 C 8,6 km/h (2 Bft)
24/07/2012 15:20 30,3 C 33 % 1014,2 hPa 0,0 mm 4,0 km/h (1 Bft) S-SE 157 0 min 0 W/m 12,2 C 30,3 C 7,6 km/h (2 Bft)
24/07/2012 15:30 30,3 C 31 % 1014,0 hPa 0,0 mm 5,8 km/h (2 Bft) S-SO 202 0 min 0 W/m 11,3 C 30,3 C 7,6 km/h (2 Bft)
24/07/2012 15:40 30,3 C 31 % 1014,0 hPa 0,0 mm 0,0 km/h (0 Bft) O-SO 247 0 min 0 W/m 11,3 C 30,3 C 0,0 km/h (0 Bft)
24/07/2012 15:50 30,5 C 31 % 1013,9 hPa 0,0 mm 0,0 km/h (0 Bft) O-SO 247 0 min 0 W/m 11,4 C 30,5 C 0,0 km/h (0 Bft)
24/07/2012 16:00 30,6 C 31 % 1013,7 hPa 0,0 mm 0,4 km/h (0 Bft) O-SO 247 0 min 0 W/m 11,5 C 30,6 C 1,8 km/h (1 Bft)
24/07/2012 16:10 30,6 C 33 % 1013,9 hPa 0,0 mm 5,8 km/h (2 Bft) SE 135 0 min 0 W/m 12,5 C 30,6 C 8,3 km/h (2 Bft)
24/07/2012 16:20 30,6 C 33 % 1013,7 hPa 0,0 mm 2,9 km/h (1 Bft) SO 225 0 min 0 W/m 12,5 C 30,6 C 8,6 km/h (2 Bft)
24/07/2012 16:30 30,6 C 33 % 1013,6 hPa 0,0 mm 3,6 km/h (1 Bft) S 180 0 min 0 W/m 12,5 C 30,6 C 7,6 km/h (2 Bft)
24/07/2012 16:40 30,8 C 33 % 1013,6 hPa 0,0 mm 0,0 km/h (0 Bft) E-NE 67 0 min 0 W/m 12,6 C 30,8 C 4,0 km/h (1 Bft)
24/07/2012 16:50 30,8 C 32 % 1013,7 hPa 0,0 mm 0,7 km/h (0 Bft) SE 135 0 min 0 W/m 12,2 C 30,8 C 4,3 km/h (1 Bft)
24/07/2012 17:00 31,0 C 32 % 1013,6 hPa 0,0 mm 0,0 km/h (0 Bft) E 90 0 min 0 W/m 12,3 C 31,0 C 0,0 km/h (0 Bft)
24/07/2012 17:10 31,2 C 32 % 1013,6 hPa 0,0 mm 1,1 km/h (1 Bft) S-SE 157 0 min 0 W/m 12,5 C 31,2 C 4,3 km/h (1 Bft)
24/07/2012 17:20 31,3 C 32 % 1013,5 hPa 0,0 mm 3,6 km/h (1 Bft) NE 45 0 min 0 W/m 12,6 C 31,3 C 7,2 km/h (2 Bft)
24/07/2012 17:30 31,4 C 32 % 1013,5 hPa 0,0 mm 2,5 km/h (1 Bft) SE 135 0 min 0 W/m 12,7 C 31,4 C 4,0 km/h (1 Bft)
24/07/2012 17:40 31,4 C 32 % 1013,5 hPa 0,0 mm 0,0 km/h (0 Bft) NE 45 0 min 0 W/m 12,7 C 31,4 C 0,0 km/h (0 Bft)
24/07/2012 17:50 31,6 C 31 % 1013,4 hPa 0,0 mm 1,4 km/h (1 Bft) E 90 0 min 0 W/m 12,4 C 31,6 C 3,2 km/h (1 Bft)
24/07/2012 18:00 31,8 C 31 % 1013,5 hPa 0,0 mm 3,2 km/h (1 Bft) S 180 0 min 0 W/m 12,6 C 31,8 C 4,0 km/h (1 Bft)
24/07/2012 18:10 31,6 C 30 % 1013,4 hPa 0,0 mm 6,5 km/h (2 Bft) SE 135 0 min 0 W/m 11,9 C 31,6 C 10,1 km/h (2 Bft)
24/07/2012 18:20 31,3 C 31 % 1013,3 hPa 0,0 mm 2,5 km/h (1 Bft) S-SO 202 0 min 0 W/m 12,1 C 31,3 C 4,0 km/h (1 Bft)
24/07/2012 18:30 31,2 C 32 % 1013,2 hPa 0,0 mm 0,4 km/h (0 Bft) S 180 0 min 0 W/m 12,5 C 31,2 C 0,4 km/h (0 Bft)
24/07/2012 18:40 31,2 C 32 % 1013,2 hPa 0,0 mm 2,2 km/h (1 Bft) S-SO 202 0 min 0 W/m 12,5 C 31,2 C 6,5 km/h (2 Bft)
24/07/2012 18:50 31,3 C 32 % 1013,2 hPa 0,0 mm 3,2 km/h (1 Bft) E-NE 67 0 min 0 W/m 12,6 C 31,3 C 4,3 km/h (1 Bft)
24/07/2012 19:00 31,5 C 32 % 1013,1 hPa 0,0 mm 1,8 km/h (1 Bft) S 180 0 min 0 W/m 12,8 C 31,5 C 3,2 km/h (1 Bft)
24/07/2012 19:10 31,4 C 32 % 1013,2 hPa 0,0 mm 0,4 km/h (0 Bft) S 180 0 min 0 W/m 12,7 C 31,4 C 3,6 km/h (1 Bft)
24/07/2012 19:20 31,4 C 33 % 1013,2 hPa 0,0 mm 1,4 km/h (1 Bft) S-SE 157 0 min 0 W/m 13,2 C 31,4 C 1,4 km/h (1 Bft)
24/07/2012 19:30 31,1 C 33 % 1013,2 hPa 0,0 mm 3,2 km/h (1 Bft) SE 135 0 min 0 W/m 12,9 C 31,1 C 4,3 km/h (1 Bft)
24/07/2012 19:40 30,8 C 31 % 1013,1 hPa 0,0 mm 0,0 km/h (0 Bft) E-SE 112 0 min 0 W/m 11,7 C 30,8 C 0,0 km/h (0 Bft)
24/07/2012 19:50 31,1 C 33 % 1013,1 hPa 0,0 mm 0,0 km/h (0 Bft) E-SE 112 0 min 0 W/m 12,9 C 31,1 C 0,0 km/h (0 Bft)
24/07/2012 20:00 31,4 C 34 % 1013,1 hPa 0,0 mm 0,0 km/h (0 Bft) N-NO 337 0 min 0 W/m 13,6 C 31,4 C 0,0 km/h (0 Bft)
24/07/2012 20:10 31,4 C 34 % 1013,2 hPa 0,0 mm 0,0 km/h (0 Bft) N-NO 337 0 min 0 W/m 13,6 C 31,4 C 3,6 km/h (1 Bft)
24/07/2012 20:20 30,9 C 35 % 1013,2 hPa 0,0 mm 0,0 km/h (0 Bft) N-NO 337 0 min 0 W/m 13,6 C 30,9 C 0,0 km/h (0 Bft)
24/07/2012 20:30 30,3 C 35 % 1013,2 hPa 0,0 mm 0,0 km/h (0 Bft) N-NO 337 0 min 0 W/m 13,1 C 30,3 C 0,0 km/h (0 Bft)
24/07/2012 20:40 29,4 C 36 % 1013,2 hPa 0,0 mm 0,0 km/h (0 Bft) N-NO 337 0 min 0 W/m 12,7 C 29,4 C 0,0 km/h (0 Bft)
24/07/2012 20:50 28,6 C 38 % 1013,3 hPa 0,0 mm 0,0 km/h (0 Bft) N-NO 337 0 min 0 W/m 12,9 C 28,6 C 0,0 km/h (0 Bft)
24/07/2012 21:00 27,9 C 40 % 1013,4 hPa 0,0 mm 0,0 km/h (0 Bft) N-NO 337 0 min 0 W/m 13,0 C 27,9 C 0,0 km/h (0 Bft)
24/07/2012 21:10 27,3 C 42 % 1013,4 hPa 0,0 mm 0,0 km/h (0 Bft) N-NO 337 0 min 0 W/m 13,2 C 27,3 C 0,0 km/h (0 Bft)
24/07/2012 21:20 26,5 C 43 % 1013,4 hPa 0,0 mm 0,0 km/h (0 Bft) N-NO 337 0 min 0 W/m 12,9 C 26,5 C 0,0 km/h (0 Bft)
24/07/2012 21:30 25,9 C 45 % 1013,4 hPa 0,0 mm 0,0 km/h (0 Bft) N-NO 337 0 min 0 W/m 13,0 C 25,9 C 0,0 km/h (0 Bft)
24/07/2012 21:40 25,2 C 47 % 1013,4 hPa 0,0 mm 0,0 km/h (0 Bft) N-NO 337 0 min 0 W/m 13,1 C 25,2 C 0,0 km/h (0 Bft)
24/07/2012 21:50 24,6 C 48 % 1013,5 hPa 0,0 mm 0,0 km/h (0 Bft) N-NO 337 0 min 0 W/m 12,8 C 24,6 C 0,0 km/h (0 Bft)
24/07/2012 22:00 23,9 C 49 % 1013,7 hPa 0,0 mm 0,0 km/h (0 Bft) N-NO 337 0 min 0 W/m 12,5 C 23,9 C 0,0 km/h (0 Bft)
24/07/2012 22:10 23,3 C 50 % 1013,7 hPa 0,0 mm 0,0 km/h (0 Bft) N-NO 337 0 min 0 W/m 12,3 C 23,3 C 0,0 km/h (0 Bft)
24/07/2012 22:20 22,8 C 52 % 1013,7 hPa 0,0 mm 0,0 km/h (0 Bft) N-NO 337 0 min 0 W/m 12,4 C 22,8 C 0,0 km/h (0 Bft)
24/07/2012 22:30 22,3 C 53 % 1013,7 hPa 0,0 mm 0,0 km/h (0 Bft) N-NO 337 0 min 0 W/m 12,2 C 22,3 C 0,0 km/h (0 Bft)
24/07/2012 22:40 21,9 C 54 % 1013,7 hPa 0,0 mm 0,0 km/h (0 Bft) N-NO 337 0 min 0 W/m 12,2 C 21,9 C 0,0 km/h (0 Bft)
24/07/2012 22:50 21,5 C 55 % 1013,7 hPa 0,0 mm 0,0 km/h (0 Bft) N-NE 22 0 min 0 W/m 12,1 C 21,5 C 0,0 km/h (0 Bft)
24/07/2012 23:00 21,2 C 56 % 1013,9 hPa 0,0 mm 0,0 km/h (0 Bft) N-NE 22 0 min 0 W/m 12,1 C 21,2 C 0,0 km/h (0 Bft)
24/07/2012 23:10 20,9 C 57 % 1013,9 hPa 0,0 mm 0,0 km/h (0 Bft) N-NE 22 0 min 0 W/m 12,1 C 20,9 C 0,0 km/h (0 Bft)
24/07/2012 23:20 20,6 C 58 % 1013,9 hPa 0,0 mm 0,0 km/h (0 Bft) N-NE 22 0 min 0 W/m 12,0 C 20,6 C 0,0 km/h (0 Bft)
24/07/2012 23:30 20,3 C 60 % 1014,0 hPa 0,0 mm 0,0 km/h (0 Bft) N-NE 22 0 min 0 W/m 12,3 C 20,3 C 0,0 km/h (0 Bft)
24/07/2012 23:40 20,1 C 61 % 1014,0 hPa 0,0 mm 0,0 km/h (0 Bft) N-NE 22 0 min 0 W/m 12,3 C 20,1 C 0,0 km/h (0 Bft)
24/07/2012 23:50 19,8 C 62 % 1014,0 hPa 0,0 mm 0,0 km/h (0 Bft) N-NE 22 0 min 0 W/m 12,3 C 19,8 C 0,0 km/h (0 Bft)
_ Min-Heure 06:30 18:10 20:00 - 23:50 - - - - 05:50 06:30 23:50
Minimum _ 8,6 C 30 % 1013,1 hPa - 0,0 km/h (0 Bft) - - - - 5,8 C 8,6 C 0,0 km/h (0 Bft)
_ Max-Heure 18:00 07:30 00:00 23:50 14:30 - - 23:50 23:50 11:00 18:00 15:00
Maximum _ 31,8 C 84 % 1017,0 hPa 0,0 mm 7,6 km/h
SO (2 Bft)
- - 0 min 0 W/m 15,5 C 31,8 C 11,5 km/h
S-SE (2 Bft)
Moyenne _ 21,4 C 55 % 1014,8 hPa #0,0 mm 1,1 km/h (0 Bft) NE - #0 min. 0 W/m 10,7 C 21,4 C 2,1 km/h (1 Bft)
Saint Bonnet de Bellac- Haute Vienne - France